Location: Hall+in+Tirol
(47.2830°N, 11.5170°E)
Time: 15:24:38
(UTC+02:00)

Gurwin Techsat 1B - Visible Passes

Search period start: 01 July 2016 00:00
Search period end: 11 July 2016 00:00
Orbit: 812 x 814 km, 98.6° (Epoch: 30 June)

Date Brightness Start Highest point End Pass type
(mag) Time Alt. Az. Time Alt. Az. Time Alt. Az.
01 Jul 10.7 02:14:53 10° NE 02:18:32 18° E 02:22:10 10° SE visible
01 Jul 8.7 03:53:41 10° N 03:59:00 69° WNW 04:03:46 13° SSW visible
02 Jul 11.0 01:53:41 10° ENE 01:55:25 11° E 01:57:08 10° ESE visible
02 Jul 8.7 03:30:52 10° NNE 03:36:14 79° ESE 03:40:41 15° S visible
03 Jul 9.2 03:08:11 10° NNE 03:13:24 51° E 03:17:35 16° S visible
04 Jul 9.9 02:45:40 10° NNE 02:50:28 33° E 02:54:29 14° SSE visible
04 Jul 9.4 04:25:34 10° N 04:30:28 38° WNW 04:35:21 10° SW visible
05 Jul 10.5 02:23:24 10° NE 02:27:29 22° E 02:31:23 11° SE visible
05 Jul 8.9 04:02:34 10° N 04:07:48 58° WNW 04:12:36 12° SSW visible
06 Jul 10.9 02:01:40 10° NE 02:04:24 14° E 02:07:06 10° ESE visible
06 Jul 8.6 03:39:42 10° NNE 03:45:04 88° WNW 03:49:30 15° SSW visible
07 Jul 9.0 03:16:58 10° NNE 03:22:16 61° ESE 03:26:24 17° S visible
08 Jul 9.6 02:54:22 10° NNE 02:59:23 39° E 03:03:18 16° SSE visible
08 Jul 9.6 04:34:31 10° N 04:39:14 33° WNW 04:43:56 10° SW visible
09 Jul 10.2 02:32:00 10° NE 02:36:24 26° E 02:40:12 13° SE visible
09 Jul 9.1 04:11:28 10° N 04:16:36 49° WNW 04:21:24 12° SW visible
10 Jul 10.8 02:09:58 10° NE 02:13:22 17° E 02:16:43 10° SE visible
10 Jul 8.7 03:48:34 10° N 03:53:54 75° WNW 03:58:18 15° SSW visible
